User: anonymous   Login
Location: Unspecified
(0.0000°N, 0.0000°E)
Time: 20:48:29
(UTC+00:00)
Language:

HO-68 - Orbit

View from above orbital plane
View from above orbital plane
View from above satellite
View from above satellite

Ground track
Ground track

The orbit data is extracted from the following two-line orbital elements,

1 36122U 09072B   17176.24460440 -.00000021 +00000-0 +56600-4 0  9993
2 36122 100.0997 202.2167 0007092 211.7281 148.3406 13.16340001361580
Epoch (UTC): 25 June 2017 05:52:13
Eccentricity: 0.0007092
inclination: 100.0997°
perigee height: 1193 km
apogee height: 1204 km
right ascension of ascending node: 202.2167°
argument of perigee: 211.7281°
revolutions per day: 13.16340001
mean anomaly at epoch: 148.3406°
orbit number at epoch: 36158

The dashed part of the orbit path shows where the satellite is in the earth's shadow,  

DLR